Location: New York
(40.7140°N, 74.0060°W)
Time: 15:13:52
(UTC-04:00)

ISS - Visible Passes

Search period start: 30 July 2014 00:00
Search period end: 09 August 2014 00:00
Orbit: 411 x 419 km, 51.6° (Epoch: 30 July)

Date Brightness Start Highest point End Pass type
(mag) Time Alt. Az. Time Alt. Az. Time Alt. Az.
30 Jul 0.1 01:24:11 13° NNE 01:24:11 13° NNE 01:24:47 10° NNE visible
30 Jul -0.1 02:58:24 10° NNW 03:00:02 13° N 03:01:40 10° NNE visible
30 Jul -0.8 04:34:52 10° NW 04:37:40 24° NNE 04:40:28 10° E visible
31 Jul -0.1 02:09:54 12° NNW 02:10:55 13° N 02:12:33 10° NNE visible
31 Jul -0.4 03:46:11 10° NNW 03:48:39 19° NNE 03:51:06 10° ENE visible
01 Aug 0.1 01:22:52 12° NNE 01:22:52 12° NNE 01:23:39 10° NNE visible
01 Aug -0.1 02:57:29 10° NNW 02:59:34 15° NNE 03:01:39 10° NE visible
01 Aug -2.1 04:33:39 10° NW 04:36:55 47° NNE 04:40:10 10° ESE visible
01 Aug -1.0 21:16:46 10° S 21:17:03 11° S 21:17:03 11° S visible
02 Aug 0.0 02:09:02 11° NNW 02:10:27 14° N 02:12:14 10° NE visible
02 Aug -1.3 03:44:56 10° NW 03:47:59 31° NNE 03:51:01 10° E visible
02 Aug -2.6 05:21:36 10° WNW 05:24:43 35° SW 05:27:48 10° SSE visible
02 Aug -3.4 22:03:12 10° SW 22:06:31 86° SE 22:08:00 31° NE visible
02 Aug 0.0 23:41:04 10° WNW 23:41:08 10° WNW 23:41:08 10° WNW visible
03 Aug -0.7 02:56:18 10° NNW 02:58:58 22° NNE 03:01:42 10° ENE visible
03 Aug -3.4 04:32:36 10° WNW 04:35:56 65° SW 04:39:15 10° SE visible
03 Aug -3.1 21:14:31 10° SSW 21:17:43 47° SE 21:20:56 10° ENE visible
03 Aug -1.0 22:51:41 10° W 22:54:34 26° NNW 22:57:00 13° NNE visible
04 Aug -3.1 03:46:03 40° NW 03:47:05 71° NE 03:50:26 10° ESE visible
04 Aug -1.4 05:21:48 10° W 05:23:23 13° SW 05:24:59 10° SSW visible
04 Aug -1.7 22:02:26 10° W 22:05:34 37° NNW 22:08:43 10° NE visible
04 Aug -0.1 23:41:06 10° NW 23:43:00 14° N 23:43:47 13° N visible
05 Aug -0.9 04:37:07 12° S 04:37:07 12° S 04:37:24 10° S visible
05 Aug -2.7 21:13:20 10° WSW 21:16:37 61° NNW 21:19:56 10° NE visible
05 Aug -0.3 22:51:38 10° WNW 22:53:52 17° NNW 22:56:07 10° NNE visible
06 Aug -0.6 22:02:10 10° WNW 22:04:46 21° NNW 22:07:23 10° NNE visible
06 Aug 0.0 23:40:52 10° NNW 23:42:27 13° N 23:42:38 13° N visible
07 Aug -1.1 21:12:47 10° W 21:15:42 28° NNW 21:18:39 10° NE visible
07 Aug -0.1 22:51:35 10° NW 22:53:16 13° N 22:54:57 10° NNE visible
08 Aug -0.2 22:02:08 10° NW 22:04:05 15° N 22:06:03 10° NNE visible
08 Aug 0.0 23:39:56 10° NNW 23:40:57 13° N 23:40:57 13° N visible
